Domov               UVHVVR             MKGP            O straneh              
ZDRAVSTVENO VARSTVO RASTLIN
  MREŽA AGROMET. POSTAJ
 ► PROGNOSTIČNA OBVESTILA
AGROMETEOROLOŠKI PODATKI -
ARSO
OBVLADOVANJE TVEGANJ ZARADI
NEUGODNIH VREMENSKIH RAZMER
  ► NARAVNE NESREČE
  ► SUŠA/MOČA
  ► NAMAKANJE
  ► ŽLED (gozdarstvo)
KARTOGRAFSKI PRIKAZI
SPLETNE POVEZAVE
PROJEKTI IN PUBLIKACIJE

AGROMETEOROLOŠKA MREŽA: VREMENSKE POSTAJE IN FENOLOŠKA OPAZOVANJA

Pregled podatkov za lokacijo Sebeborci, meteorološka postaja 25165

Pregled senzorjev na lokaciji

ID Ime Zadnja
vrednost
Datum
zadnje
spremembe
Tip
senzorja
2013 Omočenost lista (U) 0 U 25.2.2018 16:00 A730WET
2012 Padavine (mm) 0 mm 25.2.2018 16:00 Generic 0.2 mm
2014 Relativna vlaga 2 m (% RH) 46,98 % RH 25.2.2018 16:00 Generic 0 - 100 %
2015 Temperatura 2 m (°C) -5,96 °C 25.2.2018 16:00 Generic -40 - +60 °C

Pregled podatkov zadnjih 24 ur

Zap.
št.
Datum in čas Sebeborci
Omočenost
lista
Padavine Relativna
vlaga
2
m
Temperatura
2
m
1 25.2.2018 16:30
2 25.2.2018 16:00 0 0 47 -6
3 25.2.2018 15:30 0 0 46,1 -5,3
4 25.2.2018 15:00 0 0 47,4 -5,2
5 25.2.2018 14:30 0 0 46,5 -5,3
6 25.2.2018 14:00 0 0 45,6 -5,3
7 25.2.2018 13:30 0 0 46,5 -5,5
8 25.2.2018 13:00 0 0 47,3 -6,5
9 25.2.2018 12:30 0 0 49,8 -6,3
10 25.2.2018 12:00 0 0 46,3 -5,9
11 25.2.2018 11:30 0 0 49 -6,1
12 25.2.2018 11:00 0 0 47,1 -5,9
13 25.2.2018 10:30 0 0 50,3 -7
14 25.2.2018 10:00 0 0 51,8 -7,4
15 25.2.2018 09:30 0 0 53,7 -7,9
16 25.2.2018 09:00 0 0 56,4 -8,4
17 25.2.2018 08:30 0 0 57,8 -8,9
18 25.2.2018 08:00 0 0 61,8 -9,7
19 25.2.2018 07:30 0 0 63,6 -10
20 25.2.2018 07:00 0 0 64,6 -10,1
21 25.2.2018 06:30 0 0 63,7 -10
22 25.2.2018 06:00 0 0 62,5 -9,8
23 25.2.2018 05:30 0 0 62,1 -9,5
24 25.2.2018 05:00 0 0 63,1 -9,5
25 25.2.2018 04:30 0 0 62,1 -9,2
26 25.2.2018 04:00 0 0 60,3 -8,8
27 25.2.2018 03:30 0 0 61,4 -8,7
28 25.2.2018 03:00 0 0 61,5 -8,4
29 25.2.2018 02:30 0 0 63,1 -8,2
30 25.2.2018 02:00 0 0 65,2 -7,9
31 25.2.2018 01:30 0 0 64,7 -7,5
32 25.2.2018 01:00 0 0 64 -7,4
33 25.2.2018 00:30 0 0 63,5 -7,2
34 25.2.2018 00:00 0 0 62,5 -6,7
35 24.2.2018 23:30 0 0 58,9 -6,4
36 24.2.2018 23:00 0 0 55,8 -6,1
37 24.2.2018 22:30 0 0 53,2 -6
38 24.2.2018 22:00 0 0 52,5 -5,8
39 24.2.2018 21:30 0 0 51 -5,5
40 24.2.2018 21:00 0 0 52,5 -5,2
41 24.2.2018 20:30 0 0 53,8 -4,9
42 24.2.2018 20:00 0 0 62,5 -4,3
43 24.2.2018 19:30 0 0 63,3 -3,8
44 24.2.2018 19:00 0 0 59,8 -3,5
45 24.2.2018 18:30 0 0 56,5 -3,8
46 24.2.2018 18:00 0 0 55,8 -3,6
47 24.2.2018 17:30 0 0 54,4 -3,1
48 24.2.2018 17:00 0 0 52,6 -2,3
© 2011 Ministrstvo za kmetijstvo, gozdarstvo in prehrano. Vse pravice pridržane.